EAA2014 SBSP-SBGO

Flight info

Callsign EAA2014
Flight time N/A
Altitude 36000
Route GERTU UZ25 PUGOR/N0457F380 UZ25 CORVO
Aircraft A320/M-SDE3FGHIRWY/LB1

Departure

Time 2026-05-04 15:55
Airport Congonhas–Deputado Freitas Nobre Airport (SBSP)

Arrival

Time N/A
Airport Santa Genoveva International Airport (SBGO)
Time Latitude Longitude Altitude Speed Heading
2026-05-04 15:46 -23.62782 -46.65779 2601 ft 0 kts 237°
2026-05-04 15:51 -23.62783 -46.65779 2601 ft 0 kts 237°
2026-05-04 15:51 -23.62783 -46.65780 2601 ft 0 kts 237°
2026-05-04 15:52 -23.62781 -46.65777 2601 ft 2 kts 237°
2026-05-04 15:52 -23.62772 -46.65761 2601 ft 2 kts 252°
2026-05-04 15:52 -23.62770 -46.65744 2601 ft 2 kts 287°
2026-05-04 15:52 -23.62776 -46.65728 2601 ft 0 kts 318°
2026-05-04 15:53 -23.62769 -46.65735 2601 ft 3 kts 318°
2026-05-04 15:53 -23.62717 -46.65768 2601 ft 18 kts 332°
2026-05-04 15:53 -23.62557 -46.65854 2601 ft 33 kts 335°
2026-05-04 15:53 -23.62322 -46.66005 2600 ft 35 kts 326°
2026-05-04 15:54 -23.62116 -46.66129 2599 ft 27 kts 332°
2026-05-04 15:54 -23.62055 -46.66073 2596 ft 9 kts 119°
2026-05-04 15:54 -23.62088 -46.66051 2589 ft 6 kts 147°
2026-05-04 15:54 -23.62126 -46.66025 2597 ft 8 kts 147°
2026-05-04 15:55 -23.62329 -46.65881 2601 ft 81 kts 147°
2026-05-04 15:55 -23.63050 -46.65386 2611 ft 159 kts 148°
2026-05-04 15:55 -23.64021 -46.64724 3407 ft 156 kts 150°
2026-05-04 15:55 -23.65047 -46.64230 4180 ft 173 kts 168°
2026-05-04 15:56 -23.66329 -46.64167 4891 ft 197 kts 185°
2026-05-04 15:56 -23.67759 -46.64284 5663 ft 221 kts 185°
2026-05-04 15:56 -23.69380 -46.64420 6453 ft 247 kts 185°
2026-05-04 15:56 -23.71180 -46.64570 7284 ft 270 kts 185°
2026-05-04 15:57 -23.73096 -46.64729 8317 ft 280 kts 185°
2026-05-04 15:57 -23.74992 -46.65253 9406 ft 287 kts 210°
2026-05-04 15:57 -23.76406 -46.66790 10514 ft 292 kts 242°
2026-05-04 15:57 -23.77074 -46.68894 11663 ft 296 kts 255°
2026-05-04 15:58 -23.77631 -46.71074 12803 ft 301 kts 253°
2026-05-04 15:58 -23.78447 -46.73195 13884 ft 306 kts 243°
2026-05-04 15:58 -23.79534 -46.75216 14955 ft 311 kts 237°
2026-05-04 15:58 -23.80771 -46.77177 15987 ft 316 kts 234°
2026-05-04 15:59 -23.82072 -46.79135 16984 ft 321 kts 234°
2026-05-04 15:59 -23.83390 -46.81129 17955 ft 326 kts 234°
2026-05-04 15:59 -23.84704 -46.83170 18896 ft 331 kts 235°
2026-05-04 15:59 -23.86015 -46.85262 19806 ft 336 kts 237°
2026-05-04 16:00 -23.86984 -46.87588 20635 ft 341 kts 260°
2026-05-04 16:00 -23.86916 -46.90176 21435 ft 346 kts 285°
2026-05-04 16:00 -23.86022 -46.92593 22252 ft 350 kts 299°
2026-05-04 16:00 -23.84708 -46.94846 23058 ft 354 kts 305°
2026-05-04 16:01 -23.83235 -46.97025 23823 ft 359 kts 307°
2026-05-04 16:01 -23.81741 -46.99232 24543 ft 363 kts 305°
2026-05-04 16:01 -23.80294 -47.01506 25204 ft 367 kts 303°
2026-05-04 16:01 -23.78899 -47.03864 25816 ft 371 kts 302°
2026-05-04 16:02 -23.77551 -47.06283 26383 ft 375 kts 300°
2026-05-04 16:02 -23.76223 -47.08752 26933 ft 378 kts 300°
2026-05-04 16:02 -23.72909 -47.13175 27918 ft 385 kts 329°
2026-05-04 16:03 -23.70462 -47.14365 28374 ft 388 kts 343°
2026-05-04 16:03 -23.67817 -47.15024 28820 ft 391 kts 351°
2026-05-04 16:03 -23.65104 -47.15401 29268 ft 394 kts 354°
2026-05-04 16:03 -23.62367 -47.15707 29710 ft 397 kts 353°
2026-05-04 16:04 -23.59615 -47.16068 30131 ft 400 kts 352°
2026-05-04 16:04 -23.54086 -47.17084 30942 ft 405 kts 348°
2026-05-04 16:04 -23.51316 -47.17702 31344 ft 408 kts 348°
2026-05-04 16:05 -23.48533 -47.18348 31715 ft 410 kts 347°
2026-05-04 16:05 -23.45738 -47.18999 32075 ft 412 kts 348°
2026-05-04 16:05 -23.40087 -47.20279 32796 ft 417 kts 348°
2026-05-04 16:06 -23.37224 -47.20907 33010 ft 424 kts 348°
2026-05-04 16:06 -23.29325 -47.22617 33353 ft 446 kts 348°
2026-05-04 16:07 -23.25223 -47.23506 33646 ft 452 kts 348°
2026-05-04 16:07 -23.15941 -47.25532 34516 ft 459 kts 348°
2026-05-04 16:08 -23.12806 -47.26220 34781 ft 461 kts 348°
2026-05-04 16:08 -23.03323 -47.28281 35478 ft 466 kts 348°
2026-05-04 16:09 -22.96936 -47.29664 35867 ft 469 kts 348°
2026-05-04 16:09 -22.90500 -47.31066 36010 ft 476 kts 348°
2026-05-04 16:10 -22.83956 -47.32487 36008 ft 484 kts 348°
2026-05-04 16:11 -22.74142 -47.34382 37161 ft 468 kts 353°
2026-05-04 16:11 -22.70913 -47.34619 37600 ft 463 kts
2026-05-04 16:12 -22.62607 -47.30599 38896 ft 446 kts 59°
2026-05-04 16:12 -22.63168 -47.21424 39820 ft 430 kts 135°
2026-05-04 16:13 -22.68471 -47.19052 40154 ft 423 kts 187°
2026-05-04 16:13 -22.73410 -47.22048 40275 ft 420 kts 233°
2026-05-04 16:14 -22.77438 -47.26630 40275 ft 429 kts 222°
2026-05-04 16:14 -22.80803 -47.31946 40275 ft 436 kts 253°
2026-05-04 16:15 -22.79765 -47.41505 40276 ft 446 kts 304°
2026-05-04 16:16 -22.75104 -47.45865 40275 ft 453 kts 338°
2026-05-04 16:16 -22.65596 -47.48005 39695 ft 475 kts 351°
2026-05-04 16:17 -22.59053 -47.49104 39880 ft 476 kts 351°
2026-05-04 16:18 -22.49228 -47.50810 40039 ft 478 kts 350°
2026-05-04 16:18 -22.45942 -47.51403 40110 ft 478 kts 350°
2026-05-04 16:19 -22.37194 -47.52984 40260 ft 480 kts 350°
2026-05-04 16:19 -22.30622 -47.54153 40475 ft 478 kts 350°
2026-05-04 16:20 -22.20771 -47.55893 40619 ft 479 kts 350°
2026-05-04 16:20 -22.14195 -47.57062 40662 ft 480 kts 350°
2026-05-04 16:22 -21.97696 -47.59978 40831 ft 481 kts 350°
2026-05-04 16:22 -21.87820 -47.61727 40943 ft 482 kts 350°
2026-05-04 16:23 -21.77876 -47.63481 41028 ft 483 kts 350°
2026-05-04 16:24 -21.64450 -47.65657 40320 ft 501 kts 353°
2026-05-04 16:25 -21.57589 -47.66416 41002 ft 486 kts 355°
2026-05-04 16:26 -21.44782 -47.67361 41252 ft 454 kts 342°
2026-05-04 16:26 -21.35754 -47.70843 38991 ft 464 kts 344°
2026-05-04 16:27 -21.29430 -47.72327 37495 ft 467 kts 351°
2026-05-04 16:28 -21.19873 -47.73698 35856 ft 453 kts 352°
2026-05-04 16:28 -21.10953 -47.75160 35824 ft 411 kts 350°
2026-05-04 16:29 -21.00351 -47.77064 35825 ft 363 kts 350°
2026-05-04 16:30 -20.93276 -47.78298 35822 ft 323 kts 350°
2026-05-04 16:31 -20.88916 -47.78661 35139 ft 318 kts
2026-05-04 16:31 -20.84095 -47.74124 32783 ft 345 kts 90°
2026-05-04 16:32 -20.88361 -47.69416 31692 ft 323 kts 187°
2026-05-04 16:33 -20.91790 -47.72097 30507 ft 324 kts 254°
2026-05-04 16:33 -20.90799 -47.76397 29859 ft 310 kts 321°
2026-05-04 16:34 -20.86752 -47.76992 28728 ft 316 kts 30°
2026-05-04 16:34 -20.84772 -47.75751 28192 ft 347 kts 20°
2026-05-04 16:35 -20.79731 -47.78294 30973 ft 270 kts 284°
2026-05-04 16:35 -20.77258 -47.84292 31596 ft 276 kts 312°
2026-05-04 16:36 -20.75867 -47.85686 31893 ft 279 kts 323°
2026-05-04 16:36 -20.72039 -47.87583 31321 ft 319 kts 349°
2026-05-04 16:37 -20.67975 -47.87597 32859 ft 282 kts 12°
2026-05-04 16:37 -20.66049 -47.86960 32572 ft 303 kts 24°
2026-05-04 16:37 -20.62454 -47.84213 32678 ft 314 kts 49°
2026-05-04 16:38 -20.59458 -47.81136 33454 ft 305 kts 27°
2026-05-04 16:39 -20.53040 -47.80170 34087 ft 300 kts 351°
2026-05-04 16:39 -20.48985 -47.81030 34250 ft 311 kts 348°
2026-05-04 16:40 -20.44532 -47.81486 34372 ft 318 kts
2026-05-04 16:40 -20.40380 -47.80390 35040 ft 308 kts 14°
2026-05-04 16:41 -20.36023 -47.79470 34903 ft 325 kts
2026-05-04 16:41 -20.29659 -47.77979 35616 ft 318 kts 21°
2026-05-04 16:42 -20.23199 -47.75366 35630 ft 332 kts 358°
2026-05-04 16:43 -20.18792 -47.75991 36379 ft 317 kts 354°